#timestamp,LO_Frequency,Hit 
1499608815.2,286046972.8,N
1499608835.0,286046973.9,N
1499608835.9,286046973.9,N
1499608855.8,286046972.0,N
1499608875.6,286046967.8,N
1499608895.5,286046968.5,N
1499608915.3,286046966.6,N
1499608935.1,286046967.3,N
1499608955.9,286046968.6,N
1499608975.7,286046968.4,N
1499608995.5,286046968.2,N
1499609015.4,286046970.4,N
1499609035.2,286046971.3,N
1499609055.1,286046970.9,N
1499609056.0,286046970.9,N
1499609075.8,286046972.8,N
1499609095.6,286046974.6,N
1499609115.5,286046978.4,N
1499609135.3,286046977.3,N
1499609155.1,286046978.9,N
1499609175.9,286046979.0,N
1499609195.7,286046979.7,N
1499609215.6,286046978.9,N
1499609235.4,286046980.5,N
1499609255.2,286046982.4,N
1499609275.1,286046986.7,N
1499609276.0,286046986.7,N
1499609295.8,286046987.1,N
1499609315.6,286046989.1,N
1499609335.5,286046987.5,N
1499609355.3,286046989.1,N
1499609375.1,286046991.2,N
1499609395.9,286046988.7,N
1499609415.7,286046990.7,N
1499609435.6,286046988.7,N
1499609455.4,286046989.7,N
1499609475.2,286046986.9,N
1499609495.1,286046989.7,N
1499609496.0,286046989.7,N
1499609515.8,286046987.5,N
1499609535.6,286046985.7,N
1499609555.5,286046985.2,N
1499609575.3,286046982.7,N
1499609595.2,286046982.5,N
1499609615.9,286046982.0,N
1499609635.7,286046982.4,N
1499609655.6,286046982.8,N
1499609675.4,286046983.3,N
1499609695.2,286046983.2,N
1499609715.1,286046979.5,N
1499609716.0,286046979.5,N
1499609735.8,286046977.7,N
1499609755.7,286046979.3,N
1499609775.5,286046981.6,N
1499609795.3,286046983.2,N
1499609815.2,286046984.5,N
1499609835.0,286046983.9,N
1499609835.9,286046983.9,N
1499609855.7,286046985.9,N
1499609875.6,286046985.3,N
1499609895.4,286046989.7,N
1499609915.3,286046988.7,N
1499609935.1,286046989.3,N
1499609936.0,286046989.3,N
1499609955.8,286046990.7,N
1499609975.7,286046992.7,N
1499609995.5,286046995.7,N
1499610015.3,286046996.2,N
1499610035.2,286046997.9,N
1499610055.0,286046999.2,N
1499610055.9,286046999.2,N
1499610075.8,286046999.5,N
1499610095.6,286046999.5,N
1499610115.4,286046998.5,N
1499610135.3,286046999.7,N
1499610155.1,286047002.0,N
1499610175.8,286047004.1,N
1499610195.7,286047003.2,N
1499610215.5,286047004.7,N
1499610235.4,286047005.5,N
1499610255.2,286047007.6,N
1499610275.0,286047006.7,N
1499610275.9,286047006.7,N
1499610295.8,286047007.6,N
1499610315.6,286047009.2,N
1499610335.4,286047008.1,N
1499610355.3,286047009.1,N
1499610375.1,286047009.3,N
1499610395.9,286047009.9,N
1499610415.7,286047010.2,N
1499610435.5,286047010.1,N
1499610455.4,286047010.1,N
1499610475.2,286047008.1,N
1499610495.0,286047010.3,N
1499610495.9,286047010.3,N
1499610515.8,286047010.8,N
1499610535.6,286047010.2,N
1499610555.4,286047010.1,N
1499610575.3,286047011.9,N
1499610595.1,286047010.0,N
1499610615.9,286047009.3,N
1499610635.7,286047010.9,N
1499610655.5,286047011.8,N
1499610675.4,286047010.9,N
1499610695.2,286047011.6,N
1499610715.0,286047013.1,N
1499610715.9,286047013.1,N
1499610735.8,286047013.2,N
1499610755.6,286047013.6,N
1499610775.5,286047013.4,N
1499610795.3,286047012.6,N
1499610815.1,286047012.8,N
1499610835.9,286047013.5,N
1499610855.7,286047015.1,N
1499610875.5,286047015.0,N
1499610895.4,286047015.5,N
1499610915.2,286047015.5,N
1499610935.0,286047014.4,N
1499610936.0,286047014.4,N
1499610955.8,286047014.8,N
1499610975.6,286047015.1,N
1499610995.5,286047014.2,N
1499611015.3,286047018.8,N
1499611035.1,286047018.2,N
1499611055.9,286047017.6,N
1499611075.7,286047017.8,N
1499611095.5,286047015.9,N
1499611115.4,286047018.1,N
1499611135.2,286047017.5,N
1499611155.1,286047018.4,N
1499611156.0,286047018.4,N
1499611175.8,286047016.2,N
1499611195.6,286047018.6,N
1499611215.5,286047018.3,N
1499611235.3,286047018.4,N
1499611255.1,286047016.1,N
1499611275.9,286047016.2,N
1499611295.7,286047015.9,N
1499611315.6,286047015.7,N
1499611335.4,286047017.6,N
1499611355.2,286047015.7,N
1499611375.1,286047017.9,N
1499611376.0,286047017.9,N
1499611395.8,286047018.1,N
1499611415.6,286047017.6,N
1499611435.5,286047019.2,N
1499611455.3,286047019.7,N
1499611475.2,286047019.8,N
1499611495.9,286047019.1,N
1499611515.7,286047018.9,N
1499611535.6,286047019.5,N
1499611555.4,286047021.6,N
1499611575.2,286047019.2,N
1499611595.1,286047021.9,N
1499611596.0,286047021.9,N
1499611615.8,286047023.5,N
1499611635.7,286047019.8,N
1499611655.5,286047020.2,N
1499611675.3,286047021.9,N
1499611695.2,286047021.1,N
1499611715.0,286047018.9,N
1499611715.9,286047018.9,N
1499611735.7,286047022.7,N
1499611755.6,286047022.1,N
1499611775.4,286047024.9,N
1499611795.3,286047026.3,N
1499611815.1,286047024.5,N
1499611816.0,286047024.5,N
1499611835.8,286047024.9,N
1499611855.7,286047024.4,N
1499611875.5,286047024.8,N
1499611895.3,286047023.9,N
1499611915.2,286047026.5,N
1499611935.0,286047025.2,N
1499611935.9,286047025.2,N
1499611955.8,286047022.7,N
1499611975.6,286047026.3,N
1499611995.4,286047026.0,N
1499612015.3,286047026.7,N
1499612035.1,286047026.4,N
1499612055.8,286047025.2,N
1499612075.7,286047020.8,N
1499612095.5,286047021.9,N
1499612115.4,286047018.0,N
1499612135.2,286047016.4,N
1499612155.0,286047015.9,N
1499612186.0,286047013.1,Y
1499612195.9,286047008.6,N
1499612215.7,286047000.5,N
1499612235.6,286046999.3,N
1499612255.4,286046998.0,N
1499612275.2,286046995.5,N
1499612295.1,286046995.5,N
1499612296.0,286046995.5,N
1499612315.8,286046991.7,N
1499612335.7,286046991.7,N
1499612355.5,286046990.2,N
1499612375.3,286046990.4,N
1499612395.2,286046990.5,N
